| time (UTC) | temp C | wind direction | speed KPH | gust KPH | rain 1hr cm | rain 24hr cm | rain mn cm | humidity % | barometer mb |
| 20260507124044 | 10 | 68 | 0.0 | 0.0 | 0.00 | 0.00 | 0.00 | 94 | 1017.6 |
| 20260507122544 | 10 | 67 | 0.0 | 0.0 | 0.00 | 0.00 | 0.00 | 93 | 1017.4 |
| 20260507121044 | 10 | 60 | 0.0 | 0.0 | 0.00 | 0.00 | 0.00 | 91 | 1017.3 |
| 20260507115539 | 10 | 51 | 0.0 | 0.0 | 0.00 | 0.00 | 0.00 | 91 | 1017.3 |
| 20260507114035 | 11 | 55 | 0.0 | 0.0 | 0.00 | 0.00 | 0.00 | 89 | 1017.0 |
| 20260507112532 | 11 | 125 | 1.6 | 1.6 | 0.00 | 0.00 | 0.00 | 88 | 1017.0 |
| 20260507111028 | 11 | 307 | 1.6 | 1.6 | 0.00 | 0.00 | 0.00 | 88 | 1016.7 |
| 20260507105524 | 11 | 217 | 3.2 | 3.2 | 0.00 | 0.00 | 0.00 | 89 | 1016.9 |
| 20260507104020 | 11 | 93 | 1.6 | 1.6 | 0.00 | 0.00 | 0.00 | 88 | 1016.7 |
| 20260507102515 | 12 | 75 | 0.0 | 1.6 | 0.00 | 0.00 | 0.00 | 87 | 1016.7 |
| 20260507101015 | 12 | 326 | 1.6 | 3.2 | 0.00 | 0.00 | 0.00 | 85 | 1016.6 |
| 20260507095514 | 13 | 293 | 1.6 | 3.2 | 0.00 | 0.00 | 0.00 | 82 | 1016.4 |
| 20260507094010 | 13 | 89 | 0.0 | 3.2 | 0.00 | 0.00 | 0.00 | 81 | 1016.2 |
| 20260507092508 | 12 | 97 | 1.6 | 1.6 | 0.00 | 0.00 | 0.00 | 84 | 1016.5 |
| 20260507091003 | 13 | 71 | 0.0 | 1.6 | 0.00 | 0.00 | 0.00 | 82 | 1016.3 |
| 20260507085459 | 13 | 33 | 0.0 | 1.6 | 0.00 | 0.00 | 0.00 | 82 | 1016.2 |
| 20260507083955 | 14 | 66 | 0.0 | 1.6 | 0.00 | 0.00 | 0.00 | 79 | 1016.1 |
| 20260507082450 | 13 | 78 | 1.6 | 1.6 | 0.00 | 0.00 | 0.00 | 79 | 1015.9 |
| 20260507080946 | 15 | 60 | 0.0 | 1.6 | 0.00 | 0.00 | 0.00 | 75 | 1015.6 |
| 20260507075446 | 15 | 131 | 1.6 | 3.2 | 0.00 | 0.00 | 0.00 | 74 | 1015.3 |
| 20260507073943 | 15 | 58 | 0.0 | 0.0 | 0.00 | 0.00 | 0.00 | 74 | 1015.3 |
| 20260507072439 | 15 | 69 | 0.0 | 0.0 | 0.00 | 0.00 | 0.00 | 73 | 1015.6 |
| 20260507070936 | 15 | 76 | 0.0 | 1.6 | 0.00 | 0.00 | 0.00 | 74 | 1015.3 |
| 20260507065432 | 15 | 66 | 0.0 | 1.6 | 0.00 | 0.00 | 0.00 | 71 | 1015.2 |
| 20260507063932 | 16 | 58 | 0.0 | 1.6 | 0.00 | 0.00 | 0.00 | 71 | 1015.1 |
| 20260507062428 | 16 | 43 | 0.0 | 0.0 | 0.00 | 0.00 | 0.00 | 70 | 1014.9 |
| 20260507060928 | 16 | 73 | 0.0 | 0.0 | 0.00 | 0.00 | 0.00 | 67 | 1014.7 |
| 20260507055428 | 17 | 70 | 0.0 | 0.0 | 0.00 | 0.00 | 0.00 | 65 | 1014.8 |
| 20260507053924 | 17 | 68 | 0.0 | 0.0 | 0.00 | 0.00 | 0.00 | 66 | 1014.8 |
| 20260507052423 | 17 | 70 | 0.0 | 0.0 | 0.00 | 0.00 | 0.00 | 61 | 1014.7 |
| 20260507050920 | 18 | 56 | 0.0 | 0.0 | 0.00 | 0.00 | 0.00 | 62 | 1014.5 |
| 20260507045416 | 18 | 73 | 0.0 | 0.0 | 0.00 | 0.00 | 0.00 | 59 | 1014.5 |
| 20260507043912 | 19 | 61 | 0.0 | 1.6 | 0.00 | 0.00 | 0.00 | 56 | 1014.6 |
| 20260507042413 | 20 | 118 | 1.6 | 1.6 | 0.00 | 0.00 | 0.00 | 54 | 1014.5 |
| 20260507040908 | 20 | 36 | 1.6 | 1.6 | 0.00 | 0.00 | 0.00 | 53 | 1014.4 |
| 20260507035407 | 20 | 86 | 0.0 | 1.6 | 0.00 | 0.00 | 0.00 | 51 | 1014.5 |
| 20260507033905 | 20 | 47 | 0.0 | 0.0 | 0.00 | 0.00 | 0.00 | 49 | 1014.3 |
| 20260507032402 | 21 | 72 | 0.0 | 0.0 | 0.00 | 0.00 | 0.00 | 48 | 1014.2 |
| 20260507030902 | 21 | 71 | 0.0 | 1.6 | 0.00 | 0.00 | 0.00 | 47 | 1014.2 |
| 20260507025400 | 21 | 59 | 0.0 | 0.0 | 0.00 | 0.00 | 0.00 | 47 | 1014.0 |
| 20260507023856 | 22 | 64 | 0.0 | 0.0 | 0.00 | 0.00 | 0.00 | 45 | 1013.8 |
| 20260507022353 | 23 | 64 | 0.0 | 3.2 | 0.00 | 0.00 | 0.00 | 45 | 1014.1 |
| 20260507020848 | 23 | 71 | 0.0 | 0.0 | 0.00 | 0.00 | 0.00 | 47 | 1013.8 |
| 20260507015346 | 23 | 77 | 0.0 | 0.0 | 0.00 | 0.00 | 0.00 | 47 | 1013.8 |
| 20260507013846 | 25 | 56 | 0.0 | 0.0 | 0.00 | 0.00 | 0.00 | 46 | 1013.7 |
| 20260507012343 | 25 | 65 | 0.0 | 0.0 | 0.00 | 0.00 | 0.00 | 43 | 1013.7 |
| 20260507010843 | 26 | 232 | 3.2 | 3.2 | 0.00 | 0.00 | 0.00 | 40 | 1013.5 |
| 20260507005339 | 25 | 50 | 0.0 | 1.6 | 0.00 | 0.00 | 0.00 | 41 | 1013.6 |
| 20260507003836 | 26 | 75 | 0.0 | 0.0 | 0.00 | 0.00 | 0.00 | 40 | 1013.5 |
| 20260507002334 | 26 | 59 | 1.6 | 1.6 | 0.00 | 0.00 | 0.00 | 38 | 1013.3 |
| 20260507000831 | 26 | 92 | 3.2 | 4.8 | 0.00 | 0.00 | 0.00 | 37 | 1013.3 |
| 20260506235326 | 26 | 88 | 4.8 | 11.3 | 0.00 | 0.00 | 0.00 | 36 | 1013.5 |
| 20260506233823 | 26 | 92 | 8.0 | 17.7 | 0.00 | 0.00 | 0.00 | 37 | 1013.5 |
| 20260506232323 | 26 | 101 | 6.4 | 9.7 | 0.00 | 0.00 | 0.00 | 35 | 1013.5 |
| 20260506230821 | 26 | 80 | 8.0 | 12.9 | 0.00 | 0.00 | 0.00 | 35 | 1013.7 |
| 20260506225317 | 26 | 54 | 3.2 | 12.9 | 0.00 | 0.00 | 0.00 | 35 | 1013.6 |
| 20260506223814 | 27 | 99 | 4.8 | 9.7 | 0.00 | 0.00 | 0.00 | 34 | 1013.8 |
| 20260506222313 | 26 | 82 | 12.9 | 17.7 | 0.00 | 0.00 | 0.00 | 35 | 1013.9 |
| 20260506220813 | 27 | 94 | 6.4 | 16.1 | 0.00 | 0.00 | 0.00 | 36 | 1014.0 |
| 20260506215312 | 27 | 87 | 8.0 | 11.3 | 0.00 | 0.00 | 0.00 | 36 | 1014.1 |
| 20260506213809 | 26 | 100 | 11.3 | 14.5 | 0.00 | 0.00 | 0.00 | 36 | 1014.3 |
| 20260506212306 | 27 | 77 | 3.2 | 9.7 | 0.00 | 0.00 | 0.00 | 34 | 1014.7 |
| 20260506210800 | 26 | 71 | 4.8 | 8.0 | 0.00 | 0.00 | 0.00 | 34 | 1014.7 |
| 20260506205255 | 26 | 74 | 8.0 | 14.5 | 0.00 | 0.00 | 0.00 | 35 | 1014.9 |
| 20260506203753 | 25 | 60 | 8.0 | 11.3 | 0.00 | 0.00 | 0.00 | 37 | 1015.0 |
| 20260506202250 | 25 | 104 | 3.2 | 8.0 | 0.00 | 0.00 | 0.00 | 39 | 1015.0 |
| 20260506200747 | 25 | 82 | 3.2 | 4.8 | 0.00 | 0.00 | 0.00 | 37 | 1015.0 |
| 20260506195247 | 25 | 93 | 3.2 | 8.0 | 0.00 | 0.00 | 0.00 | 38 | 1015.4 |
| 20260506193745 | 25 | 27 | 1.6 | 4.8 | 0.00 | 0.00 | 0.00 | 38 | 1015.7 |
| 20260506192241 | 25 | 29 | 1.6 | 4.8 | 0.00 | 0.00 | 0.00 | 35 | 1015.9 |
| 20260506190737 | 23 | 349 | 3.2 | 3.2 | 0.00 | 0.00 | 0.00 | 37 | 1016.1 |
| 20260506185233 | 24 | 30 | 0.0 | 3.2 | 0.00 | 0.00 | 0.00 | 35 | 1016.4 |
| 20260506183730 | 23 | 285 | 1.6 | 3.2 | 0.00 | 0.00 | 0.00 | 35 | 1016.6 |
| 20260506182230 | 22 | 2 | 1.6 | 1.6 | 0.00 | 0.00 | 0.00 | 35 | 1016.9 |
| 20260506180728 | 22 | 1 | 1.6 | 4.8 | 0.00 | 0.00 | 0.00 | 34 | 1017.2 |
| 20260506175227 | 21 | 24 | 1.6 | 4.8 | 0.00 | 0.00 | 0.00 | 41 | 1017.2 |
| 20260506173724 | 20 | 26 | 1.6 | 4.8 | 0.00 | 0.00 | 0.00 | 40 | 1017.2 |
| 20260506172220 | 19 | 36 | 1.6 | 3.2 | 0.00 | 0.00 | 0.00 | 41 | 1017.5 |
| 20260506170719 | 18 | 30 | 0.0 | 3.2 | 0.00 | 0.00 | 0.00 | 41 | 1017.7 |
| 20260506165216 | 17 | 348 | 1.6 | 3.2 | 0.00 | 0.00 | 0.00 | 43 | 1017.9 |
| 20260506163713 | 16 | 41 | 0.0 | 1.6 | 0.00 | 0.00 | 0.00 | 44 | 1018.0 |
| 20260506162208 | 15 | 48 | 0.0 | 1.6 | 0.00 | 0.00 | 0.00 | 54 | 1018.3 |
| 20260506160706 | 13 | 60 | 0.0 | 1.6 | 0.00 | 0.00 | 0.00 | 61 | 1018.6 |
| 20260506155204 | 13 | 41 | 0.0 | 1.6 | 0.00 | 0.00 | 0.00 | 65 | 1018.8 |
| 20260506153311 | 12 | 86 | 1.6 | 1.6 | 0.00 | 0.00 | 0.00 | 66 | 1018.9 |
| 20260506151810 | 11 | 32 | 1.6 | 1.6 | 0.00 | 0.00 | 0.00 | 70 | 1019.1 |
| 20260506150306 | 12 | 59 | 0.0 | 0.0 | 0.00 | 0.00 | 0.00 | 68 | 1019.3 |
| 20260506144802 | 11 | 64 | 0.0 | 0.0 | 0.00 | 0.00 | 0.00 | 70 | 1019.4 |
| 20260506143259 | 9 | 57 | 0.0 | 0.0 | 0.00 | 0.00 | 0.00 | 78 | 1019.6 |
| 20260506141759 | 8 | 106 | 1.6 | 1.6 | 0.00 | 0.00 | 0.00 | 80 | 1019.4 |
| 20260506140257 | 7 | 67 | 0.0 | 1.6 | 0.00 | 0.00 | 0.00 | 85 | 1019.6 |
| 20260506134753 | 7 | 135 | 1.6 | 1.6 | 0.00 | 0.00 | 0.00 | 83 | 1019.5 |
| 20260506133249 | 7 | 67 | 1.6 | 1.6 | 0.00 | 0.00 | 0.00 | 84 | 1019.4 |
| 20260506131747 | 7 | 46 | 0.0 | 0.0 | 0.00 | 0.00 | 0.00 | 84 | 1019.4 |
| 20260506130242 | 7 | 46 | 0.0 | 1.6 | 0.00 | 0.00 | 0.00 | 86 | 1019.2 |